IRIDIUM 137 (43076 NORAD) Tracking and Keplerian Element Data

This shows tracking and keplerian element data for the satellite.

Feedback or suggestion? Click here.




ElementValue
Catalog43076
NameIRIDIUM 137
Epoch Orbit16133
Epoch Day20.87588063
Epoch Year2021
RAAN66.7409
Inclination86.3952
Eccentricity0.0002542
Argument of Perigee97.8048
Mean Anonmoly262.3437
Mean Motion14.34218743
Decay Rate7.5E-07
L11 43076U 17083G 21020.87588063 .00000075 00000-0 19705-4 0 9997
L22 43076 86.3952 66.7409 0002542 97.8048 262.3437 14.34218743161334

Live tracking and technical data element details for IRIDIUM 137 (NORAD 43076). IRIDIUM 137 can be tracked NOW for your location showing map with azimuth and elevation plus other details from your city location.

Track the satellite on the map from your city or location and see movement details for azimuth, elevation, latitude, longitude, range, height, and movement on the map or in text.







IsCatalogInMostPopularTable: catalog: 43076, numindb: 542
Update: records affected: 1



GetName: 43076 IRIDIUM 137

Hit Count: updated at: Sat, 23 Jan 2021 04:32:41 GMT